FW1792 Weather Reports


time (UTC)temp
F
wind
direction
speed
knots
gust
knots
rain 1hr
in
rain 24hr
in
rain mn
in
humidity
%
barometer
mb
20260507182557 58 11 0.9 5.2 0.00 0.31 0.09 75 1013.1
20260507181235 59 18 2.6 5.2 0.00 0.31 0.09 73 1013.0
20260507181116 58 39 1.7 4.3 0.00 0.31 0.09 74 1013.1
20260507180551 59 39 2.6 5.2 0.00 0.31 0.09 74 1013.1
20260507175527 59 58 2.6 5.2 0.00 0.31 0.09 74 1013.1
20260507175248 59 35 0.9 3.5 0.00 0.31 0.09 74 1013.0
20260507175221 59 35 1.7 3.5 0.00 0.31 0.09 74 1013.1
20260507175043 59 35 1.7 2.6 0.00 0.31 0.09 74 1013.0
20260507173505 59 32 0.9 2.6 0.00 0.31 0.09 74 1013.0
20260507173006 59 32 0.9 2.6 0.00 0.31 0.09 74 1013.0
20260507172800 59 32 2.6 7.8 0.00 0.31 0.09 74 1013.0
20260507172537 59 32 0.9 5.2 0.00 0.31 0.09 74 1013.0
20260507171500 59 21 2.6 7.8 0.00 0.31 0.09 74 1013.0
20260507171001 59 25 3.5 8.7 0.00 0.31 0.09 74 1013.1
20260507170502 59 0 6.1 9.6 0.00 0.32 0.09 74 1013.1
20260507170001 59 357 5.2 9.6 0.00 0.32 0.09 74 1013.0
20260507165718 59 0 5.2 9.6 0.00 0.32 0.09 74 1013.2
20260507165539 59 16 4.3 8.7 0.00 0.32 0.09 74 1013.1
20260507164458 59 7 4.3 9.6 0.00 0.32 0.09 74 1013.1
20260507164157 58 39 3.5 5.2 0.01 0.39 0.09 71 1013.0
20260507164112 58 28 3.5 5.2 0.01 0.47 0.09 71 1013.0
20260507164014 59 10 6.1 9.6 0.00 0.32 0.09 74 1013.0
20260507163655 59 69 5.2 9.6 0.00 0.34 0.09 74 1013.0
20260507163117 59 34 4.3 9.6 0.01 0.38 0.09 74 1013.0
20260507162543 59 48 4.3 7.8 0.01 0.38 0.09 72 1013.0
20260507160948 58 27 1.7 5.2 0.01 0.60 0.09 70 1013.0
20260507160440 58 23 3.5 5.2 0.01 0.61 0.09 70 1012.9
20260507155935 57 73 2.6 4.3 0.00 0.61 0.09 70 1012.8
20260507155435 56 32 2.6 2.6 0.01 0.61 0.09 70 1012.8
20260507154436 56 30 1.7 2.6 0.05 0.64 0.09 71 1012.9
20260507154148 56 55 1.7 2.6 0.08 0.74 0.08 72 1012.3
20260507154003 56 348 1.7 3.5 0.06 0.65 0.09 70 1012.9
20260507153434 56 58 1.7 3.5 0.06 0.70 0.09 71 1012.8
20260507153406 56 94 1.7 4.3 0.06 0.73 0.08 71 1012.8
20260507153049 56 63 1.7 4.3 0.06 0.72 0.08 71 1012.6
20260507152007 56 62 1.7 2.6 0.08 0.74 0.08 72 1012.6
20260507151114 56 257 0.9 6.1 0.08 0.75 0.08 73 1012.3
20260507150949 56 340 1.7 2.6 0.08 0.75 0.08 72 1012.2
20260507145929 57 247 2.6 12.2 0.07 0.68 0.07 73 1012.4
20260507145430 57 254 6.1 13.9 0.06 0.68 0.06 74 1012.3
20260507144928 58 254 8.7 13.9 0.05 0.68 0.05 74 1012.2
20260507144426 59 240 7.8 16.5 0.04 0.68 0.04 73 1012.2
20260507143926 60 247 9.6 16.5 0.03 0.68 0.03 73 1011.9
20260507143428 62 254 7.0 10.4 0.02 0.68 0.02 74 1011.9
20260507143111 64 149 2.6 8.7 0.02 0.68 0.02 70 1011.4
20260507142953 63 235 4.3 8.7 0.02 0.68 0.02 72 1011.5
20260507142133 65 124 1.7 5.2 0.00 0.68 0.00 68 1011.0
20260507142004 65 216 0.0 5.2 0.00 0.68 0.00 69 1011.1
20260507140923 65 175 0.0 5.2 0.00 0.68 0.00 68 1010.9
20260507140423 65 37 0.0 5.2 0.00 0.68 0.00 68 1010.8
20260507135924 65 28 0.0 2.6 0.00 0.68 0.00 67 1011.0
20260507135423 66 348 0.0 4.3 0.00 0.69 0.00 66 1010.9
20260507134921 66 133 0.0 4.3 0.00 0.69 0.00 64 1011.0
20260507134417 67 334 0.0 3.5 0.00 0.69 0.00 63 1010.9
20260507133919 67 145 0.0 3.5 0.00 0.69 0.00 60 1011.0
20260507133418 67 78 0.0 6.1 0.00 0.69 0.00 58 1011.1
20260507132916 67 152 0.0 6.1 0.00 0.70 0.00 59 1011.1
20260507132421 67 219 0.0 5.2 0.00 0.72 0.00 62 1011.1
20260507131911 67 180 0.9 10.4 0.00 0.72 0.00 60 1011.2
20260507131417 68 212 0.0 10.4 0.00 0.78 0.00 60 1011.2
20260507130912 68 175 1.7 7.8 0.00 0.93 0.00 60 1011.3
20260507130413 68 109 0.9 5.2 0.00 0.99 0.00 61 1011.3
20260507125905 67 220 0.9 5.2 0.00 1.02 0.00 61 1011.2
20260507125402 67 166 0.0 4.3 0.00 1.05 0.00 60 1011.2
20260507125024 68 92 2.6 10.4 0.00 1.06 0.00 59 1011.4
20260507124909 67 144 0.0 10.4 0.00 1.06 0.00 56 1011.2
20260507124544 67 154 2.6 10.4 0.00 1.06 0.00 57 1011.3
20260507123942 67 193 0.0 5.2 0.00 1.06 0.00 56 1011.2
20260507123451 68 247 0.0 11.3 0.00 1.06 0.00 54 1011.2
20260507123413 67 157 0.9 6.1 0.00 1.06 0.00 58 1011.2
20260507123049 67 197 0.0 9.6 0.00 1.06 0.00 57 1011.3
20260507122746 69 216 1.7 13.9 0.00 1.06 0.00 53 1011.3
20260507122504 68 162 3.5 9.6 0.00 1.06 0.00 55 1011.3
20260507120851 69 188 5.2 13.9 0.00 1.06 0.00 55 1011.3
20260507120524 69 237 0.0 5.2 0.00 1.06 0.00 57 1011.3
20260507115950 68 148 0.0 6.1 0.00 1.06 0.00 56 1011.3
20260507115407 68 162 1.7 10.4 0.00 1.06 0.00 58 1011.4
20260507114336 68 224 2.6 8.7 0.00 1.06 0.00 59 1011.3
20260507114232 67 128 5.2 8.7 0.00 1.07 0.00 59 1011.4
20260507113934 67 133 0.9 9.6 0.00 1.06 0.00 61 1011.3
20260507113401 67 209 5.2 9.6 0.00 1.07 0.00 57 1011.4
20260507112522 67 92 1.7 9.6 0.00 1.07 0.00 63 1011.5
20260507112403 67 165 4.3 6.1 0.00 1.07 0.00 58 1011.5
20260507111332 67 124 3.5 9.6 0.00 1.07 0.00 62 1011.5
20260507111134 67 87 3.5 9.6 0.00 1.07 0.00 63 1011.5
20260507111111 67 127 4.3 9.6 0.00 1.08 0.00 65 1011.7
20260507110911 67 182 4.3 8.7 0.00 1.07 0.00 65 1011.6
20260507105334 67 137 1.7 8.7 0.00 1.08 0.00 63 1011.7
20260507104832 67 151 3.5 9.6 0.00 1.08 0.00 66 1011.8
20260507104331 67 162 5.2 10.4 0.00 1.08 0.00 65 1011.8
20260507103834 68 103 5.2 10.4 0.00 1.08 0.00 66 1011.9
20260507103334 68 268 3.5 8.7 0.00 1.08 0.00 64 1012.0
20260507102834 68 52 4.3 7.8 0.00 1.08 0.00 63 1011.9
20260507102649 67 166 3.5 9.6 0.00 1.09 0.00 65 1011.9
20260507102628 67 117 4.3 9.6 0.00 1.09 0.00 64 1012.0
20260507102422 67 76 2.6 7.8 0.00 1.08 0.00 66 1011.9
20260507100833 67 93 1.7 5.2 0.00 1.09 0.00 66 1012.0
20260507100335 66 176 1.7 6.1 0.00 1.09 0.00 67 1012.1
20260507095834 66 169 3.5 7.8 0.00 1.09 0.00 66 1012.1
20260507095546 65 1 0.9 8.7 0.00 1.10 0.00 69 1012.0
20260507095402 66 97 4.3 7.8 0.00 1.10 0.00 69 1012.0
20260507094333 65 83 6.1 11.3 0.00 1.10 0.00 69 1012.0
20260507093833 65 96 1.7 11.3 0.00 1.11 0.00 71 1012.0
20260507093334 64 89 4.3 7.8 0.00 1.12 0.00 72 1011.9
20260507092833 64 48 2.6 5.2 0.00 1.12 0.00 73 1011.8
20260507092333 64 87 2.6 5.2 0.00 1.12 0.00 73 1011.9
20260507091832 64 96 2.6 5.2 0.00 1.13 0.00 73 1011.8
20260507091332 64 44 2.6 5.2 0.00 1.13 0.00 73 1011.9
20260507090834 65 73 1.7 4.3 0.00 1.13 0.00 73 1011.9
20260507090328 65 52 1.7 6.1 0.00 1.13 0.00 73 1012.0
20260507090231 64 68 2.6 7.8 0.00 1.13 0.00 74 1012.0
20260507090201 64 44 3.5 7.8 0.00 1.13 0.00 74 1012.0
20260507085913 64 31 2.6 6.1 0.00 1.13 0.00 74 1012.0
20260507084324 64 82 4.3 7.8 0.00 1.13 0.00 74 1012.0
20260507083946 64 94 2.6 5.2 0.00 1.13 0.00 74 1012.0
20260507083842 64 107 3.5 5.2 0.00 1.13 0.00 74 1012.0
20260507082821 64 65 2.6 7.8 0.00 1.13 0.00 74 1011.9
20260507082321 63 10 3.5 7.8 0.00 1.13 0.00 74 1011.8
20260507081817 63 78 3.5 5.2 0.00 1.13 0.00 74 1011.9
20260507081532 63 30 5.2 7.8 0.00 1.13 0.00 74 1011.8
20260507081347 63 54 3.5 7.8 0.00 1.13 0.00 74 1011.9
20260507080309 63 52 1.7 5.2 0.00 1.13 0.00 74 1011.8
20260507075807 62 85 1.7 5.2 0.00 1.13 0.00 74 1011.8
20260507075309 62 3 1.7 6.1 0.00 1.13 0.00 72 1011.8
20260507074806 61 0 2.6 6.1 0.00 1.13 0.00 72 1011.8
20260507074306 61 69 2.6 5.2 0.00 1.13 0.00 72 1011.8
20260507073804 61 61 3.5 4.3 0.00 1.14 0.00 72 1011.8
20260507073300 60 7 1.7 6.1 0.00 1.14 0.00 72 1011.8
20260507072758 60 18 2.6 6.1 0.00 1.14 0.00 72 1011.8
20260507072257 60 0 4.3 3.5 0.00 1.14 0.00 71 1011.7
20260507071544 60 331 3.5 6.1 0.00 1.15 0.00 72 1011.6
20260507071359 60 0 3.5 6.1 0.00 1.14 0.00 72 1011.6
20260507070319 60 24 2.6 6.1 0.00 1.15 0.00 72 1011.6
20260507065821 60 49 3.5 5.2 0.00 1.17 0.00 72 1011.5
20260507065318 60 0 1.7 5.2 0.00 1.18 0.00 72 1011.6
20260507064959 59 20 2.6 6.1 0.00 1.21 0.00 71 1011.5
20260507064838 59 0 4.3 6.1 0.00 1.20 0.00 72 1011.6
20260507063820 58 49 2.6 6.1 0.00 1.24 0.00 71 1011.5
20260507063313 58 6 2.6 5.2 0.00 1.24 0.00 70 1011.5
20260507062811 58 28 1.7 4.3 0.00 1.27 0.00 70 1011.5
20260507062509 57 39 2.6 5.2 0.00 1.28 0.00 71 1011.4
20260507062334 57 27 2.6 5.2 0.00 1.28 0.00 71 1011.5
20260507061304 57 42 2.6 4.3 0.00 1.28 0.00 70 1011.4
20260507061144 57 35 1.7 3.5 0.00 1.28 0.00 70 1011.4
20260507061136 56 35 1.7 4.3 0.00 1.28 0.00 71 1011.3
20260507060855 57 37 2.6 3.5 0.00 1.28 0.00 70 1011.4
20260507055300 56 35 1.7 5.2 0.00 1.28 0.00 71 1011.2
20260507054757 56 44 4.3 5.2 0.00 1.28 0.00 70 1011.1
20260507054255 56 28 2.6 4.3 0.00 1.28 0.00 70 1011.1
20260507053752 56 30 1.7 3.5 0.00 1.28 0.00 70 1011.1
20260507053603 56 0 2.6 7.8 0.00 1.28 0.00 70 1011.0
20260507053515 56 51 3.5 7.8 0.00 1.28 0.00 69 1011.0
20260507053330 56 16 2.6 6.1 0.00 1.28 0.00 70 1011.1
20260507051742 56 37 3.5 5.2 0.00 1.28 0.00 69 1010.9
20260507051245 56 55 3.5 5.2 0.00 1.28 0.00 68 1010.8
20260507050749 56 35 1.7 4.3 0.00 1.28 0.00 68 1010.7
20260507050244 56 38 0.0 0.0 0.00 1.28 0.00 67 1010.7
20260507045743 56 16 0.0 0.0 0.00 1.28 0.00 67 1010.6
20260507045241 56 14 0.0 2.6 0.00 1.28 0.00 66 1010.7
20260507044741 55 25 0.0 2.6 0.00 1.28 0.00 66 1010.7
20260507044431 55 35 0.0 2.6 0.00 1.28 0.00 66 1010.6
20260507044300 55 30 0.0 2.6 0.00 1.28 0.00 66 1010.6
20260507043238 55 38 1.7 2.6 0.00 1.28 0.00 66 1010.5
20260507042735 55 39 0.0 2.6 0.00 1.28 0.00 66 1010.5
20260507042238 55 47 0.0 0.0 0.00 1.28 0.00 66 1010.4
20260507041737 55 38 0.0 0.0 0.00 1.28 0.00 66 1010.4
20260507041411 55 42 0.0 0.0 0.00 1.28 0.00 66 1010.4
20260507041300 55 35 0.0 0.0 0.00 1.28 0.00 66 1010.4
20260507040233 56 69 0.0 0.0 0.00 1.28 0.00 66 1010.4
20260507035902 56 56 0.0 0.0 0.00 1.28 0.00 66 1010.4
20260507035752 56 69 0.0 0.0 0.00 1.28 0.00 66 1010.4
20260507034732 56 1 0.0 0.0 0.00 1.28 0.00 66 1010.4
20260507034422 56 1 0.0 0.0 0.00 1.28 0.00 66 1010.3
20260507034256 56 1 0.0 0.0 0.00 1.28 0.00 66 1010.4
20260507033231 56 1 0.0 0.0 0.00 1.28 0.00 66 1010.3
20260507032728 56 25 0.0 0.0 0.00 1.28 0.00 66 1010.2
20260507032228 56 27 0.0 0.0 0.00 1.28 0.00 66 1010.2
20260507031727 56 27 0.0 0.0 0.00 1.28 0.00 66 1010.3
20260507031223 56 27 0.0 0.0 0.00 1.28 0.00 66 1010.2
20260507030726 56 27 0.0 0.0 0.00 1.28 0.00 66 1010.3
20260507030618 56 35 0.0 0.0 0.00 1.28 0.00 66 1010.2
20260507030507 57 35 0.0 0.0 0.00 1.28 0.00 66 1010.2
20260507030306 56 27 0.0 0.0 0.00 1.28 0.00 66 1010.3
20260507024724 57 35 0.0 0.0 0.00 1.28 0.00 66 1010.1
20260507024220 57 35 0.0 0.0 0.00 1.28 0.00 66 1010.2
20260507023721 57 35 0.0 0.0 0.00 1.28 0.00 66 1010.2
20260507023218 57 35 0.0 0.0 0.00 1.28 0.00 66 1010.2
20260507022715 57 35 0.0 0.0 0.00 1.28 0.00 66 1010.1
20260507022213 57 35 0.0 0.0 0.00 1.28 0.00 66 1010.2
20260507021713 57 35 0.0 0.0 0.00 1.28 0.00 66 1010.1
20260507021212 57 35 0.0 0.0 0.00 1.28 0.00 66 1010.1
20260507020710 57 35 0.0 0.0 0.00 1.28 0.00 66 1010.2
20260507020211 57 35 0.0 0.0 0.00 1.28 0.00 66 1010.2
20260507015711 57 35 0.0 0.0 0.00 1.28 0.00 66 1010.2
20260507015214 57 35 0.0 0.0 0.00 1.28 0.00 66 1010.1
20260507014710 57 35 0.0 0.0 0.00 1.28 0.00 66 1010.0
20260507014208 57 35 0.0 0.0 0.00 1.28 0.00 66 1010.2
20260507013706 57 35 0.0 0.0 0.00 1.28 0.00 66 1010.2
20260507013326 57 35 0.0 0.0 0.00 1.28 0.00 66 1010.2
20260507013226 57 35 0.0 0.0 0.00 1.28 0.00 66 1010.2
20260507012203 57 35 0.0 0.0 0.00 1.28 0.00 66 1010.3
20260507011659 57 35 0.0 0.0 0.00 1.28 0.00 66 1010.3
20260507011155 57 35 0.0 0.0 0.00 1.28 0.00 66 1010.3
20260507010654 57 35 0.0 0.0 0.00 1.28 0.00 66 1010.2
20260507010153 57 35 0.0 0.0 0.00 1.28 0.00 66 1010.2
20260507005655 57 35 0.0 0.0 0.00 1.28 0.00 66 1010.2
20260507005155 57 35 0.0 0.0 0.00 1.28 0.00 66 1010.3
20260507004655 57 35 0.0 0.0 0.00 1.28 0.00 66 1010.2
20260507004153 57 37 0.0 0.0 0.00 1.28 0.00 66 1010.2
20260507003654 57 37 0.0 0.0 0.00 1.28 0.00 66 1010.3
20260507003154 57 37 0.0 0.0 0.00 1.28 0.00 66 1010.3
20260507002653 57 35 0.0 0.0 0.00 1.28 0.00 66 1010.3
20260507002149 57 37 0.0 0.0 0.00 1.28 0.00 66 1010.3
20260507001900 57 37 0.0 0.0 0.00 1.28 0.00 66 1010.4
20260507001718 57 37 0.0 0.0 0.00 1.28 0.00 66 1010.4
20260507000856 57 37 0.0 0.0 0.00 1.34 0.00 66 1010.4
20260507000721 57 37 0.0 0.0 0.00 1.34 0.00 66 1010.4
20260506235641 57 37 0.0 0.0 0.00 1.34 0.00 65 1010.4
20260506235141 57 37 0.0 0.0 0.00 1.34 0.00 66 1010.4
20260506234839 57 38 0.0 0.0 0.00 1.34 0.00 66 1010.4
20260506234707 57 37 0.0 0.0 0.00 1.34 0.00 66 1010.3
20260506233641 57 38 0.0 0.0 0.00 1.34 0.00 66 1010.4
20260506233137 57 38 0.0 0.0 0.00 1.34 0.00 66 1010.4
20260506232635 57 38 0.0 0.0 0.00 1.34 0.00 66 1010.5
20260506232136 57 62 0.0 0.0 0.00 1.34 0.00 66 1010.5
20260506231631 57 62 0.0 0.0 0.00 1.34 0.00 66 1010.5
20260506231133 57 61 0.0 0.0 0.00 1.34 0.00 66 1010.5
20260506230628 57 61 0.0 0.0 0.00 1.34 0.00 66 1010.5
20260506230410 57 61 0.0 0.0 0.00 1.34 0.00 65 1010.6
20260506230209 57 61 0.0 0.0 0.00 1.34 0.00 65 1010.5
20260506225128 57 61 0.0 0.0 0.00 1.34 0.00 65 1010.6
20260506224551 57 61 0.0 0.0 0.00 1.34 0.00 65 1010.6
20260506224159 57 61 0.0 0.0 0.00 1.34 0.00 65 1010.5
20260506223141 57 61 0.0 0.0 0.00 1.34 0.00 65 1010.5
20260506222636 57 62 0.0 0.0 0.00 1.34 0.00 65 1010.5
20260506222137 57 62 0.0 0.0 0.00 1.34 0.00 65 1010.4
20260506221636 57 62 0.0 0.0 0.00 1.34 0.00 65 1010.3
20260506221138 57 62 0.0 0.0 0.00 1.34 0.00 65 1010.3
20260506220636 57 62 0.0 0.0 0.00 1.34 0.00 65 1010.4
20260506220139 57 62 0.0 0.0 0.00 1.34 0.00 65 1010.4
20260506215630 57 62 0.0 0.0 0.00 1.34 1.34 65 1010.4
20260506215128 57 62 0.0 0.0 0.00 1.34 1.34 65 1010.4
20260506214628 57 63 0.0 0.0 0.00 1.34 1.34 65 1010.4
20260506214126 57 102 0.0 1.7 0.00 1.34 1.34 65 1010.5
20260506213625 57 248 0.0 3.5 0.00 1.34 1.34 65 1010.5
20260506213325 58 217 0.0 4.3 0.00 1.34 1.34 65 1010.4
20260506213157 57 243 0.9 3.5 0.00 1.34 1.34 65 1010.3
20260506212125 58 72 2.6 6.1 0.00 1.34 1.34 65 1010.4
20260506211622 58 87 3.5 6.1 0.00 1.35 1.34 65 1010.4
20260506211124 58 89 2.6 6.1 0.00 1.35 1.34 65 1010.5
20260506210623 58 56 3.5 7.8 0.00 1.35 1.34 65 1010.4
20260506210124 58 61 2.6 7.8 0.00 1.35 1.34 65 1010.4
20260506205622 58 86 2.6 6.1 0.01 1.35 1.34 65 1010.3
20260506205119 58 75 4.3 6.1 0.02 1.35 1.34 65 1010.3
20260506204619 58 93 0.0 5.2 0.02 1.35 1.34 65 1010.4
20260506204303 57 16 0.0 0.0 0.08 1.38 1.34 65 1010.4
20260506204144 57 17 0.0 0.0 0.05 1.36 1.34 65 1010.4
20260506203116 58 16 0.0 0.0 0.12 1.39 1.34 65 1010.4
20260506202616 58 144 0.0 0.0 0.14 1.39 1.34 65 1010.4
20260506202116 58 144 0.0 0.0 0.17 1.39 1.34 65 1010.3
20260506201615 57 142 0.0 0.0 0.20 1.42 1.34 65 1010.3
20260506201112 57 241 0.0 0.9 0.20 1.44 1.34 65 1010.3
20260506200611 57 241 0.0 0.9 0.22 1.46 1.34 65 1010.2
20260506200109 57 241 0.0 2.6 0.23 1.46 1.34 65 1010.2
20260506195608 57 241 0.9 2.6 0.22 1.24 1.33 65 1010.1
20260506195109 57 241 0.0 0.9 0.21 1.24 1.31 65 1010.0
20260506194605 57 238 0.0 6.1 0.20 1.25 1.31 65 1009.9
20260506194105 57 227 0.9 6.1 0.18 1.25 1.28 65 1009.9
20260506193606 57 275 4.3 7.8 0.15 1.27 1.25 65 1009.7
20260506193107 57 245 6.1 7.8 0.11 1.27 1.21 65 1009.9
20260506192605 57 289 0.0 0.0 0.09 1.28 1.19 65 1009.8
20260506192109 58 292 0.0 0.0 0.06 1.28 1.16 65 1009.9
20260506191603 58 344 0.0 0.0 0.03 1.29 1.13 65 1009.7
20260506191104 58 278 0.0 0.0 0.02 1.29 1.13 65 1009.6
20260506190604 59 269 0.0 0.0 0.01 1.29 1.11 65 1009.5
20260506190329 59 243 0.0 0.0 0.00 1.30 1.11 65 1009.3
20260506190136 59 243 0.0 0.0 0.00 1.30 1.11 65 1009.4
20260506185100 59 244 0.0 5.2 0.00 1.31 1.11 65 1009.4
20260506184558 59 243 1.7 6.1 0.00 1.31 1.11 65 1009.4
20260506184254 59 169 0.0 10.4 0.00 1.32 1.11 65 1009.4
20260506184122 59 234 4.3 7.8 0.00 1.32 1.11 65 1009.4
20260506183057 59 226 4.3 10.4 0.00 1.32 1.11 65 1009.3